This is the latest recevied weather packets stored in our database for station/object KU4DD. If no packets are shown the sender has not sent any weather packets the latest 10 day(s).
| Time | Temp. | Humidity | Pressure | Rain* | Wind** | Luminosity | Snow |
|---|---|---|---|---|---|---|---|
| 1778028383 | 21.67° C | 50% | 1012.9 hPa | 0 mm | - | - | - |
| 1778028058 | 22.22° C | 50% | 1012.9 hPa | 0 mm | - | - | - |
| 1778027414 | 22.22° C | 50% | 1012.5 hPa | 0 mm | - | - | - |
| 1778027092 | 22.22° C | 49% | 1012.5 hPa | 0 mm | - | - | - |
| 1778026455 | 22.22° C | 49% | 1012.2 hPa | 0 mm | - | - | - |
| 1778025812 | 22.22° C | 49% | 1012.2 hPa | 0 mm | - | - | - |
| 1778021156 | 22.78° C | 46% | 1011.9 hPa | 0 mm | - | - | - |
| 1778015534 | 22.22° C | 46% | 1012.2 hPa | 0 mm | - | - | - |
| 1778014581 | 22.22° C | 47% | 1012.2 hPa | 0 mm | - | - | - |
| 1778011127 | 22.22° C | 47% | 1012.5 hPa | 0 mm | - | - | - |
| 1778007347 | 21.67° C | 49% | 1013.5 hPa | 0 mm | - | - | - |
| 1778005155 | 21.67° C | 50% | 1013.9 hPa | 0 mm | - | - | - |
| 1777999191 | 21.67° C | 53% | 1014.6 hPa | 0 mm | - | - | - |
| 1777998867 | 21.67° C | 51% | 1014.6 hPa | 0 mm | - | - | - |
| 1777996668 | 21.67° C | 52% | 1015.2 hPa | 0 mm | - | - | - |
| 1777989147 | 22.22° C | 51% | 1015.2 hPa | 0 mm | - | - | - |
| 1777987571 | 22.22° C | 52% | 1015.2 hPa | 0 mm | - | - | - |
| 1777985686 | 22.22° C | 53% | 1015.2 hPa | 0 mm | - | - | - |
| 1777982862 | 21.67° C | 51% | 1015.2 hPa | 0 mm | - | - | - |
| 1777981913 | 21.11° C | 52% | 1014.9 hPa | 0 mm | - | - | - |
| 1777978461 | 21.11° C | 53% | 1014.6 hPa | 0 mm | - | - | - |
| 1777978136 | 21.11° C | 52% | 1014.6 hPa | 0 mm | - | - | - |
| 1777977811 | 21.11° C | 52% | 1014.6 hPa | 0 mm | - | - | - |
| 1777977177 | 21.11° C | 54% | 1014.2 hPa | 0 mm | - | - | - |
| 1777975294 | 21.11° C | 53% | 1014.2 hPa | 0 mm | - | - | - |
* Rain latest hour (hover to see other rain measurements)
** Current wind speed in m/s (hover to see current wind gust speed)